Вернуться в каталог

MIDAS 3 DEB

АктивенPO
NORAD 188·DEBRIS·🇺🇸 United States

Запущен Jul 12, 1961 с Vandenberg Space Force Base

Loading…

Ближайшие Пролёты (ближайшие 24 часа)

TLE

СвежийSource: Space-Track

Эпоха: Sep 11, 2026, 07:51 UTC

1 00188U 61018C   26254.32763841 -.00000005  00000-0 -20091-2 0  9997
2 00188  91.1312 211.7895 0110263 288.5689  70.3235  8.93822315125894

Отслеживайте MIDAS 3 DEB в реальном времени с AllMySat

Download on the App Store